Location: Bonac
(42.8765°N, 0.9753°E)
Time: 05:36:41
(UTC+00:00)

NOAA 6 - Visible Passes

Search period start: 19 April 2026 00:00
Search period end: 29 April 2026 00:00
Orbit: 766 x 781 km, 98.6° (Epoch: 18 April)

Date Brightness Start Highest point End Pass type
(mag) Time Alt. Az. Time Alt. Az. Time Alt. Az.
19 Apr 6.1 19:43:21 10° SSW 19:47:38 27° W 19:51:58 10° NW visible
20 Apr 4.8 19:08:07 10° S 19:13:07 57° W 19:18:08 10° NNW visible
21 Apr 6.8 20:15:43 10° WSW 20:18:24 14° W 20:21:06 10° WNW visible
22 Apr 6.0 19:39:18 10° SSW 19:43:43 30° W 19:48:09 10° NW visible
24 Apr 6.7 20:11:28 10° SW 20:14:28 16° W 20:17:28 10° NW visible
25 Apr 5.8 19:35:17 10° SSW 19:39:48 32° W 19:44:21 10° NNW visible
27 Apr 6.7 20:07:16 10° SW 20:10:31 17° W 20:13:48 10° NW visible
28 Apr 5.7 19:31:16 10° SSW 19:35:53 35° W 19:40:32 10° NNW visible
